BBM:
ISTPOKER
LINE:
istanapoker
Wechat:
istanapoker
Whatsapp:
081280407568
Phone:
081280407568
Emastoto

Jackpot

Texas Poker Multi Jackpot System

Kini Telah hadir Jackpot SUPER ROYAL FLUSH

Kini Telah hadir Jackpot 2000 (khusus table VIP keatas).

Ikutilah global jackpot yang tersedia di system kami, dengan system jackpot terbaru dan pertama di indonesia, anda dapat membeli jackpot dengan harga 100 rupiah saja dan menangkan hadiahnya hingga puluhan juta rupiah.

Jackpot bukanlah suatu keharusan untuk dibeli, namun kami memberikan suatu fitur tambahan untuk member tercinta dari www.istanapoker.co.

Terdapat tiga pilihan harga jackpot yang bisa anda beli yaitu :100,500,1000 dan 2000(khusus table VIP Keatas) rupiah.

Hadiah dari Multi jackpot system www.istanapoker.co

  1. full house x 10 harga jackpot yang anda beli.
      (contoh:anda membeli 1000 maka:1000 X10 = 10.000)
  2. four of kind x 250 harga jackpot yang anda beli
      (contoh:anda membeli 1000 maka:1000 X250 = 250.000)
  3. Straight flush x 1200
      (contoh:anda membeli 1000 maka:1000 X1200 = 1.200.000)
  4. Royal flush x 10000 harga jackpot yang anda beli
      (contoh:anda membeli 1000 maka:1000 X10000 = 10.000.000)
  5. SUPER ROYAL FLUSH x 30000 harga jackpot yang anda beli
      (contoh:anda membeli 1000 maka:1000 X30000 = 30.000.000)

Kondisi kartu

  1. full house adalah kondisi kartu dimana kartu anda dan kartu tengah dengan total 7 kartu bisa mendapatkan nilai 5 kartu dengan kombinasi 1 tris(three of kind) dan 1 pair, contoh 3 kartu 10 dan 2 kartu 5
  2. Four of kind adalah kondisi kartu dimana kartu anda dan kartu tengah dengan total 7 kartu bisa mendapatkan nilai 5 kartu dengan kombinasi 4 kartu yang sama jumlah dan 1 kartu apapun juga contoh anda mendapatkan 4 buah kartu angka 3 dan 1 kartu apapun.
  3. Staright flush adalah kondisi kartu dimana kartu anda dan kartu tengah dengan total 7 kartu bisa mendapatkan nilai 5 kartu dengan kombinasi seri / staright dengan kembang yang sama contoh : urutan kartu dari angka 5, 6, 7, 8 , 9 10 dengan kembang yg sama misalnya as hati
  4. Royal flush adalah kondisi kartu dimana kartu anda dan kartu tengah dengan total 7 kartu bisa mendapatkan nilai 5 kartu dengan kombinasi seri / staright dengan kembang yang sama tetapi kartu tersebut haruslah dimulai dari 10. contoh 10, Queen, Jack, King dan aces dengan kembang yang sama
  5. Super Royal flush adalah kondisi kartu dimana Kedua kartu anda digabung dengan 3 kartu pertama meja haruslah royal flush. contoh kartu anda 10,Queen kembang sama dan 3 kartu pertama meja adalah Jack, King dan aces dengan kembang yang sama

Demikian adalah penjelasan dari Multi Jackpot www.istanapoker.co terima kasih dan selamat bermain salam hoki dari kami

Texas Poker Jackpot Winner

TOP SUPER ROYAL FLUSH
No.TanggalNamaPriceWin
119/06 22:51XK4MI2Super Royal flush3,000,000
219/06 22:24WINNER888Super Royal flush15,000,000
319/06 22:05F8A6BAF1Super Royal flush6,000,000
419/06 19:56ONANI026Super Royal flush6,000,000
519/06 19:21TUDDINSuper Royal flush6,000,000
TOP ROYAL FLUSH
No.TanggalNamaPriceWin
120/06 00:49RADWEDWETRoyal flush5,000,000
220/06 00:48NAONATH12Royal flush1,000,000
320/06 00:46MASALAHLOHRoyal flush10,000,000
420/06 00:45AMSYONG888Royal flush5,000,000
520/06 00:40KONG44Royal flush2,000,000
TOP STRAIGHT FLUSH
No.TanggalNamaPriceWin
120/06 00:49LIANINA21Straight Flush600,000
220/06 00:48MRCL99Straight Flush240,000
320/06 00:47MAMOLA78Straight Flush240,000
420/06 00:47GIYONG888Straight Flush120,000
520/06 00:46J6WCXFRQG6Straight Flush240,000
LATEST JACKPOT
No.TanggalNamaPriceWin
120/06 00:49KAYULAPIS3Full House10,000
220/06 00:49BD9D35CBFour Of A Kind50,000
320/06 00:49WEWE90MBLFour Of A Kind125,000
420/06 00:49YARMUKFull House5,000
520/06 00:49OPSIONAL1Full House5,000
620/06 00:49XI4NF87OQCFull House5,000
720/06 00:49TGO0X5IUT7Full House2,000
820/06 00:49B4C4N_PK3RFull House2,000
920/06 00:49BBCLFull House2,000
1020/06 00:49LIANINA21Straight Flush600,000
1120/06 00:49CBR1986Full House10,000
1220/06 00:49M476APFXRSFull House10,000
1320/06 00:49OPEN666Full House1,000
1420/06 00:49LEMBU1234Full House2,000
1520/06 00:49MALAMPIR46Full House10,000
1620/06 00:49VZONKPKQ9Full House5,000
1720/06 00:49ZEUS81Full House5,000
1820/06 00:49METHONK9Full House5,000
1920/06 00:49FHULOFull House1,000
2020/06 00:49RAJAJP_NAFull House5,000
2120/06 00:49IPINOCEFull House1,000
2220/06 00:49PR4B0W0123Full House1,000
2320/06 00:49SADANA83Full House10,000
2420/06 00:49ASPOL333Full House5,000
2520/06 00:49BADAI769Full House2,000
2620/06 00:49DURATUNFour Of A Kind25,000
2720/06 00:49SETIAIKAFull House2,000
2820/06 00:49SB0777Full House2,000
2920/06 00:49TEMPURA_99Full House2,000
3020/06 00:49WFTT42SJWIFull House2,000
3120/06 00:49BOKEH69Full House5,000
3220/06 00:49WHYNOT2550Full House5,000
3320/06 00:49RAWNA007Full House2,000
3420/06 00:49DABON9Full House1,000
3520/06 00:49DAUNPIS777Four Of A Kind50,000
3620/06 00:49RADWEDWETRoyal flush5,000,000
3720/06 00:48A42A1KAL1794Full House1,000
3820/06 00:48OTAN234Full House5,000
3920/06 00:48PL4K0RFull House2,000
4020/06 00:48AALLIIINNNFull House10,000
4120/06 00:48BANDRX89Full House5,000
4220/06 00:48BABITAIFull House2,000
4320/06 00:48CAHYOBANIFull House1,000
4420/06 00:48EKO77OFull House1,000
4520/06 00:48SEXYY11Full House2,000
4620/06 00:48AGAN353Full House10,000
4720/06 00:48GI2KQHKPSFFull House1,000
4820/06 00:48M4NTIL1Full House20,000
4920/06 00:48IDR888XFull House10,000
5020/06 00:48FE2D1BDBFull House2,000

Domino Multi Jackpot System

Ikutilah global jackpot yang tersedia di system kami, dengan system jackpot terbaru dan pertama di indonesia, anda dapat membeli jackpot dengan harga 100 rupiah saja dan menangkan hadiahnya hingga puluhan juta rupiah.

Jackpot bukanlah suatu keharusan untuk dibeli, namun kami memberikan suatu fitur tambahan untuk member tercinta dari www.istanapoker.co.

Terdapat tiga pilihan harga jackpot yang bisa anda beli yaitu :100,500 dan 1000 rupiah.

Hadiah dari Multi jackpot system www.istanapoker.co

  1. Murni Kecil x 50 harga jackpot yang anda beli.
      (contoh:anda membeli 1000 maka:1000 X 50 = 50.000)
  2. Murni Besar x 50 harga jackpot yang anda beli
      (contoh:anda membeli 1000 maka:1000 X 50 = 50.000)
  3. BALAK x 100 harga jackpot yang anda beli
      (contoh:anda membeli 1000 maka:1000 X 100 = 100.000)
  4. ENAM DEWA x 6666 harga jackpot yang anda beli
      (contoh:anda membeli 1000 maka:1000 X 6666 = 6.666.000)

Demikian adalah penjelasan dari Multi Jackpot www.istanapoker.co terima kasih dan selamat bermain salam hoki dari kami

Domino Jackpot Winner

TOP ENAM DEWA
No.TanggalNamaPriceWin
120/06 00:15EVRIT01murni enam3,333,000
219/06 23:47SOLONG85murni enam3,333,000
319/06 22:17MF92murni enam666,600
419/06 22:07SEHAH66murni enam3,333,000
519/06 15:29JEEG99murni enam666,600
TOP BALAK
No.TanggalNamaPriceWin
120/06 00:49TACIK29balak100,000
220/06 00:44T4DTOFAbalak10,000
320/06 00:43IV4ND312balak100,000
420/06 00:40FINO98CIbalak100,000
520/06 00:40EDOLENJERbalak100,000
LATEST JACKPOT
No.TanggalNamaPriceWin
120/06 00:49PP000murni besar50,000
220/06 00:49TACIK29balak100,000
320/06 00:48IKRAMJRRmurni kecil50,000
420/06 00:47LHANGIETmurni besar50,000
520/06 00:47AD0904F2murni besar5,000
620/06 00:46PURO_32murni besar25,000
720/06 00:46MUMU10001murni kecil5,000
820/06 00:46INODEmurni besar25,000
920/06 00:46DWBTHEII11murni besar5,000
1020/06 00:45GIOFIRMANmurni besar25,000
1120/06 00:44T4DTOFAbalak10,000
1220/06 00:43IV4ND312balak100,000
1320/06 00:43AGUSUJ4NGmurni kecil25,000
1420/06 00:42KLX370murni kecil5,000
1520/06 00:42LUCKYY_303murni besar25,000
1620/06 00:41FJM6HJJA5Hmurni kecil25,000
1720/06 00:40LUCKYY_303murni besar25,000
1820/06 00:40FINO98CIbalak100,000
1920/06 00:40LACOBRA12murni besar5,000
2020/06 00:40EDOLENJERbalak100,000
2120/06 00:39EB5CBA08murni besar50,000
2220/06 00:39C05C360Fmurni kecil50,000
2320/06 00:38UCING_66murni kecil25,000
2420/06 00:38P4RTI99murni besar25,000
2520/06 00:38FARHANA117lucky9910,000
2620/06 00:37BALON6120murni besar25,000
2720/06 00:37EMANEKOKmurni kecil50,000
2820/06 00:37MIKO_Rmurni kecil25,000
2920/06 00:36ARNITA77murni kecil25,000
3020/06 00:36ZAKI678murni besar50,000
3120/06 00:36EMWE0917balak50,000
3220/06 00:35FKCKC923murni kecil50,000
3320/06 00:35SIDIKGUNlucky9910,000
3420/06 00:35BONK_1799murni kecil25,000
3520/06 00:34ANDRIANNOOmurni kecil25,000
3620/06 00:34SEHAH66murni kecil50,000
3720/06 00:33B5D11murni kecil50,000
3820/06 00:33X9XOXO9Xmurni kecil50,000
3920/06 00:33H5V2B3A5RLmurni kecil5,000
4020/06 00:33SAUDIKJImurni besar50,000
4120/06 00:32RENGET2000murni kecil50,000
4220/06 00:32DWBTUSEI45murni besar50,000
4320/06 00:31MIKO_Rmurni kecil25,000
4420/06 00:31FURIOUSQQmurni kecil25,000
4520/06 00:31ALARKHAN22murni besar5,000
4620/06 00:31JEHANUmurni besar50,000
4720/06 00:31DMGIMAB9NFmurni besar5,000
4820/06 00:31ALOY009murni besar5,000
4920/06 00:31SMOKE455murni kecil50,000
5020/06 00:30UCING_66murni kecil5,000

Ceme Multi Jackpot System

Jackpot dilihat dari gabungan kartu pemain dengan kartu bandar. Bandar harus membeli jackpot sebanyak jumlah player yang sedang duduk. Sebagai contoh bila terdapat 3 pemain duduk bermain, dan bandar memutuskan untuk membeli jackpot Rp 1.000, maka pada periode tersebut bandar akan membeli jackpot sebanyak 3xRp1.000 = Rp3.000.

Jackpot bukanlah suatu keharusan untuk dibeli, namun kami memberikan suatu fitur tambahan untuk member tercinta dari www.istanapoker.co.

Terdapat tiga pilihan harga jackpot yang bisa anda beli yaitu :100,500 dan 1000 rupiah.

Hadiah dari Multi jackpot system www.istanapoker.co

  1. Murni Kecil x 50 harga jackpot yang anda beli.
      (contoh:anda membeli 1000 maka:1000 X 50 = 50.000)
  2. Murni Besar x 50 harga jackpot yang anda beli
      (contoh:anda membeli 1000 maka:1000 X 50 = 50.000)
  3. BALAK x 200 harga jackpot yang anda beli
      (contoh:anda membeli 1000 maka:1000 X 200 = 200.000)
  4. ENAM DEWA x 6666 harga jackpot yang anda beli
      (contoh:anda membeli 1000 maka:1000 X 6666 = 6.666.000)

Demikian adalah penjelasan dari Multi Jackpot www.istanapoker.co terima kasih dan selamat bermain salam hoki dari kami

Ceme Jackpot Winner

TOP ENAM DEWA
No.TanggalNamaPriceWin
120/06 00:45KUPU2211murni enam3,333,000
220/06 00:45GEBE89murni enam3,333,000
320/06 00:18MERCOOONmurni enam6,666,000
420/06 00:11ZZIIIEEEmurni enam3,333,000
520/06 00:11IDNPRO120murni enam666,600
TOP BALAK
No.TanggalNamaPriceWin
120/06 00:48D9E7FEA1balak100,000
220/06 00:48A17ONK878balak20,000
320/06 00:48HERI142011balak100,000
420/06 00:47SOAS999balak100,000
520/06 00:46LESLEY18balak200,000
LATEST JACKPOT
No.TanggalNamaPriceWin
120/06 00:49S05P4O4A59murni kecil25,000
220/06 00:49Q_PAIRmurni kecil50,000
320/06 00:49Q_PAIRmurni kecil50,000
420/06 00:49KOAYUNG50murni kecil25,000
520/06 00:48D83BFB56murni kecil25,000
620/06 00:48VANDERGUNmurni kecil50,000
720/06 00:48DWIS818murni besar50,000
820/06 00:48DUNCAMATmurni besar25,000
920/06 00:48D9E7FEA1balak100,000
1020/06 00:48D4FAF390murni kecil5,000
1120/06 00:48BGSDWI01murni kecil25,000
1220/06 00:48JPIEBENK0murni kecil50,000
1320/06 00:48A17ONK878balak20,000
1420/06 00:48HERI142011balak100,000
1520/06 00:48AHJSUHHmurni kecil5,000
1620/06 00:48EVXBK0R0E7murni besar25,000
1720/06 00:47MEAN002murni kecil50,000
1820/06 00:47KOKO8669murni kecil50,000
1920/06 00:47LASTRI81murni kecil50,000
2020/06 00:47MEME9988murni kecil50,000
2120/06 00:47LEONA98murni kecil50,000
2220/06 00:47GOLO89murni besar25,000
2320/06 00:47FER311murni kecil25,000
2420/06 00:47JANDAQQ55murni besar25,000
2520/06 00:47SOAS999balak100,000
2620/06 00:46ZIEN147murni kecil25,000
2720/06 00:46LESLEY18balak200,000
2820/06 00:46BAGILAH12balak20,000
2920/06 00:46GOLO89murni kecil25,000
3020/06 00:46DESY250murni kecil50,000
3120/06 00:46BASOSOHKOEmurni besar50,000
3220/06 00:46ZHIKOPUTRAmurni kecil50,000
3320/06 00:46IDNGKA83murni kecil50,000
3420/06 00:46DONGKOL78murni kecil50,000
3520/06 00:46CC8343B0murni kecil50,000
3620/06 00:46AGENTSUPERmurni besar5,000
3720/06 00:45S3LLOObalak100,000
3820/06 00:45J4BR3K99balak100,000
3920/06 00:45KUPU2211murni enam3,333,000
4020/06 00:45GEBE89murni enam3,333,000
4120/06 00:45AAK0112murni kecil5,000
4220/06 00:45ANDRIEE88murni kecil5,000
4320/06 00:45IHSANACEHmurni besar5,000
4420/06 00:45L4P4K399murni besar25,000
4520/06 00:45V92UAP5VRLbalak200,000
4620/06 00:45DACIL_HOKIbalak20,000
4720/06 00:44BIMAPURTAmurni besar25,000
4820/06 00:44TIUNKODOKmurni besar50,000
4920/06 00:44AUTOWIN10murni besar25,000
5020/06 00:44BELOHODmurni besar50,000